| time (UTC) | temp F | wind direction | speed MPH | gust MPH | rain 1hr in | rain 24hr in | rain mn in | humidity % | barometer mb |
| 20260901104520 | 52 | 0.0 | 0.0 | 0.00 | 0.07 | 0.00 | 95 | 1005.5 | |
| 20260901103519 | 52 | 0.0 | 0.0 | 0.00 | 0.07 | 0.00 | 95 | 1005.5 | |
| 20260901102559 | 52 | 0.0 | 0.0 | 0.00 | 0.07 | 0.00 | 95 | 1005.5 | |
| 20260901101520 | 53 | 0.0 | 0.0 | 0.00 | 0.07 | 0.00 | 95 | 1005.5 | |
| 20260901100542 | 53 | 0.0 | 0.0 | 0.00 | 0.07 | 0.00 | 95 | 1005.5 | |
| 20260901095519 | 53 | 2 | 1.0 | 2.0 | 0.00 | 0.07 | 0.00 | 95 | 1005.5 |
| 20260901094539 | 53 | 354 | 1.0 | 2.0 | 0.00 | 0.07 | 0.00 | 95 | 1005.6 |
| 20260901093519 | 54 | 359 | 1.0 | 2.0 | 0.00 | 0.07 | 0.00 | 95 | 1005.6 |
| 20260901092520 | 54 | 0 | 2.0 | 4.0 | 0.00 | 0.07 | 0.00 | 95 | 1005.7 |
| 20260901091520 | 54 | 1 | 1.0 | 3.0 | 0.00 | 0.07 | 0.00 | 95 | 1005.7 |
| 20260901090520 | 54 | 358 | 1.0 | 4.0 | 0.00 | 0.07 | 0.00 | 95 | 1005.8 |
| 20260901085519 | 54 | 10 | 1.0 | 3.0 | 0.00 | 0.07 | 0.00 | 95 | 1006.0 |
| 20260901084536 | 54 | 359 | 0.0 | 0.0 | 0.00 | 0.07 | 0.00 | 95 | 1006.0 |
| 20260901083518 | 54 | 14 | 1.0 | 3.0 | 0.00 | 0.07 | 0.00 | 95 | 1006.2 |
| 20260901082521 | 54 | 357 | 1.0 | 3.0 | 0.00 | 0.07 | 0.00 | 95 | 1006.3 |
| 20260901081540 | 54 | 348 | 2.0 | 4.0 | 0.00 | 0.07 | 0.00 | 95 | 1006.3 |
| 20260901080521 | 54 | 13 | 1.0 | 3.0 | 0.00 | 0.07 | 0.00 | 95 | 1006.3 |
| 20260901075537 | 54 | 4 | 2.0 | 3.0 | 0.00 | 0.07 | 0.00 | 95 | 1006.4 |
| 20260901074517 | 54 | 10 | 1.0 | 3.0 | 0.00 | 0.07 | 0.00 | 95 | 1006.5 |
| 20260901073519 | 54 | 0.0 | 0.0 | 0.00 | 0.07 | 0.00 | 95 | 1006.6 | |
| 20260901072522 | 54 | 0.0 | 0.0 | 0.00 | 0.07 | 0.00 | 95 | 1006.7 | |
| 20260901071519 | 54 | 345 | 0.0 | 2.0 | 0.00 | 0.07 | 0.00 | 95 | 1006.8 |
| 20260901070518 | 54 | 0.0 | 0.0 | 0.00 | 0.07 | 0.00 | 95 | 1006.8 | |
| 20260901065520 | 55 | 358 | 0.0 | 2.0 | 0.00 | 0.07 | 0.07 | 95 | 1006.9 |
| 20260901064539 | 55 | 354 | 1.0 | 3.0 | 0.00 | 0.07 | 0.07 | 95 | 1007.1 |
| 20260901063519 | 55 | 8 | 1.0 | 4.0 | 0.00 | 0.07 | 0.07 | 95 | 1007.4 |
| 20260901062519 | 55 | 6 | 1.0 | 3.0 | 0.00 | 0.07 | 0.07 | 95 | 1007.8 |
| 20260901061519 | 55 | 8 | 0.0 | 3.0 | 0.00 | 0.07 | 0.07 | 95 | 1007.9 |
| 20260901060541 | 55 | 0.0 | 0.0 | 0.00 | 0.07 | 0.07 | 95 | 1008.0 | |
| 20260901055519 | 55 | 358 | 0.0 | 2.0 | 0.00 | 0.07 | 0.07 | 95 | 1007.9 |
| 20260901054518 | 56 | 347 | 0.0 | 2.0 | 0.00 | 0.07 | 0.07 | 95 | 1007.9 |
| 20260901053516 | 56 | 2 | 3.0 | 5.0 | 0.00 | 0.07 | 0.07 | 95 | 1007.8 |
| 20260901052520 | 56 | 4 | 4.0 | 5.0 | 0.00 | 0.07 | 0.07 | 95 | 1008.1 |
| 20260901051540 | 56 | 346 | 1.0 | 4.0 | 0.00 | 0.07 | 0.07 | 95 | 1008.2 |
| 20260901050517 | 56 | 8 | 4.0 | 6.0 | 0.00 | 0.07 | 0.07 | 95 | 1008.4 |
| 20260901045518 | 56 | 0 | 4.0 | 5.0 | 0.00 | 0.07 | 0.07 | 95 | 1008.5 |
| 20260901044519 | 56 | 348 | 3.0 | 3.0 | 0.00 | 0.07 | 0.07 | 95 | 1008.7 |
| 20260901043518 | 56 | 354 | 3.0 | 4.0 | 0.00 | 0.07 | 0.07 | 95 | 1008.8 |
| 20260901042520 | 56 | 326 | 2.0 | 2.0 | 0.00 | 0.07 | 0.07 | 95 | 1008.9 |
| 20260901041518 | 56 | 358 | 3.0 | 4.0 | 0.00 | 0.07 | 0.07 | 95 | 1009.0 |
| 20260901040518 | 57 | 353 | 3.0 | 3.0 | 0.00 | 0.07 | 0.07 | 95 | 1009.2 |
| 20260901035518 | 57 | 358 | 3.0 | 3.0 | 0.00 | 0.07 | 0.07 | 95 | 1009.3 |
| 20260901034518 | 56 | 344 | 2.0 | 3.0 | 0.00 | 0.07 | 0.07 | 95 | 1009.3 |
| 20260901033520 | 57 | 334 | 2.0 | 2.0 | 0.00 | 0.07 | 0.07 | 95 | 1009.2 |
| 20260901032519 | 57 | 344 | 2.0 | 3.0 | 0.00 | 0.07 | 0.07 | 95 | 1009.3 |
| 20260901031519 | 57 | 353 | 2.0 | 3.0 | 0.00 | 0.07 | 0.07 | 95 | 1009.4 |
| 20260901030521 | 57 | 355 | 2.0 | 3.0 | 0.00 | 0.07 | 0.07 | 95 | 1009.4 |
| 20260901025541 | 57 | 359 | 1.0 | 3.0 | 0.00 | 0.07 | 0.07 | 95 | 1009.5 |
| 20260901024518 | 57 | 355 | 2.0 | 3.0 | 0.00 | 0.07 | 0.07 | 95 | 1009.4 |
| 20260901023518 | 57 | 355 | 1.0 | 2.0 | 0.00 | 0.07 | 0.07 | 95 | 1009.5 |
| 20260901022520 | 57 | 338 | 2.0 | 2.0 | 0.00 | 0.07 | 0.07 | 94 | 1009.6 |
| 20260901021520 | 58 | 328 | 2.0 | 2.0 | 0.00 | 0.07 | 0.07 | 94 | 1009.7 |
| 20260901020558 | 58 | 334 | 2.0 | 2.0 | 0.00 | 0.07 | 0.07 | 93 | 1009.6 |
| 20260901015518 | 58 | 337 | 1.0 | 2.0 | 0.00 | 0.07 | 0.07 | 95 | 1009.6 |
| 20260901014518 | 58 | 317 | 1.0 | 2.0 | 0.00 | 0.07 | 0.07 | 95 | 1009.7 |
| 20260901013518 | 58 | 301 | 1.0 | 2.0 | 0.00 | 0.07 | 0.07 | 95 | 1009.8 |
| 20260901012519 | 59 | 280 | 1.0 | 2.0 | 0.00 | 0.07 | 0.07 | 95 | 1009.9 |
| 20260901011540 | 59 | 285 | 0.0 | 1.0 | 0.00 | 0.07 | 0.07 | 94 | 1010.0 |
| 20260901010518 | 59 | 0.0 | 0.0 | 0.00 | 0.06 | 0.06 | 92 | 1010.0 | |
| 20260901005518 | 59 | 0.0 | 0.0 | 0.00 | 0.06 | 0.06 | 92 | 1010.0 | |
| 20260901004520 | 60 | 0.0 | 0.0 | 0.00 | 0.06 | 0.06 | 93 | 1010.1 | |
| 20260901003518 | 60 | 0.0 | 0.0 | 0.00 | 0.06 | 0.06 | 91 | 1010.2 | |
| 20260901002520 | 60 | 0.0 | 0.0 | 0.00 | 0.06 | 0.06 | 89 | 1010.2 | |
| 20260901001519 | 61 | 180 | 0.0 | 2.0 | 0.00 | 0.07 | 0.06 | 87 | 1010.3 |
| 20260901000520 | 61 | 217 | 0.0 | 1.0 | 0.00 | 0.07 | 0.06 | 87 | 1010.3 |
| 20260831235536 | 60 | 186 | 0.0 | 2.0 | 0.00 | 0.07 | 0.06 | 86 | 1010.3 |
| 20260831234516 | 61 | 203 | 0.0 | 2.0 | 0.00 | 0.07 | 0.06 | 87 | 1010.4 |
| 20260831233520 | 61 | 201 | 1.0 | 2.0 | 0.00 | 0.07 | 0.06 | 85 | 1010.5 |
| 20260831232520 | 62 | 201 | 1.0 | 2.0 | 0.00 | 0.07 | 0.06 | 83 | 1010.4 |
| 20260831231539 | 61 | 131 | 0.0 | 3.0 | 0.00 | 0.07 | 0.06 | 85 | 1010.4 |
| 20260831230517 | 61 | 176 | 0.0 | 2.0 | 0.00 | 0.07 | 0.06 | 87 | 1010.6 |
| 20260831225517 | 60 | 214 | 0.0 | 2.0 | 0.00 | 0.07 | 0.06 | 88 | 1010.7 |
| 20260831224542 | 59 | 216 | 1.0 | 3.0 | 0.00 | 0.07 | 0.06 | 91 | 1010.9 |
| 20260831223538 | 59 | 220 | 1.0 | 3.0 | 0.00 | 0.07 | 0.06 | 91 | 1011.0 |
| 20260831222519 | 59 | 215 | 0.0 | 2.0 | 0.00 | 0.07 | 0.06 | 90 | 1011.0 |
| 20260831221520 | 59 | 202 | 1.0 | 2.0 | 0.00 | 0.07 | 0.06 | 91 | 1011.1 |
| 20260831220518 | 58 | 183 | 1.0 | 3.0 | 0.00 | 0.07 | 0.06 | 91 | 1011.2 |
| 20260831215520 | 58 | 221 | 0.0 | 2.0 | 0.00 | 0.07 | 0.06 | 91 | 1011.3 |
| 20260831214540 | 57 | 273 | 1.0 | 2.0 | 0.00 | 0.07 | 0.06 | 93 | 1011.3 |
| 20260831213520 | 57 | 218 | 2.0 | 3.0 | 0.00 | 0.07 | 0.06 | 94 | 1011.4 |
| 20260831212519 | 57 | 239 | 2.0 | 3.0 | 0.00 | 0.07 | 0.06 | 93 | 1011.4 |
| 20260831211516 | 57 | 243 | 1.0 | 3.0 | 0.00 | 0.07 | 0.06 | 94 | 1011.5 |
| 20260831210518 | 57 | 276 | 1.0 | 3.0 | 0.00 | 0.07 | 0.06 | 95 | 1011.6 |
| 20260831205521 | 57 | 260 | 1.0 | 3.0 | 0.00 | 0.07 | 0.06 | 95 | 1011.6 |
| 20260831204540 | 57 | 261 | 1.0 | 3.0 | 0.00 | 0.07 | 0.06 | 93 | 1011.6 |
| 20260831203520 | 57 | 276 | 1.0 | 3.0 | 0.00 | 0.07 | 0.06 | 93 | 1011.7 |
| 20260831202517 | 57 | 251 | 2.0 | 4.0 | 0.00 | 0.07 | 0.06 | 92 | 1011.7 |
| 20260831201539 | 57 | 261 | 1.0 | 4.0 | 0.00 | 0.07 | 0.06 | 94 | 1011.7 |
| 20260831200518 | 57 | 249 | 1.0 | 3.0 | 0.00 | 0.07 | 0.06 | 93 | 1011.8 |
| 20260831195521 | 57 | 263 | 1.0 | 4.0 | 0.00 | 0.07 | 0.06 | 93 | 1011.8 |
| 20260831194518 | 57 | 255 | 1.0 | 3.0 | 0.00 | 0.07 | 0.06 | 96 | 1011.8 |
| 20260831193518 | 56 | 267 | 1.0 | 3.0 | 0.00 | 0.07 | 0.06 | 96 | 1012.0 |
| 20260831192518 | 56 | 307 | 1.0 | 2.0 | 0.00 | 0.07 | 0.06 | 96 | 1011.9 |
| 20260831191520 | 56 | 266 | 2.0 | 3.0 | 0.00 | 0.07 | 0.06 | 96 | 1011.9 |
| 20260831190518 | 56 | 282 | 1.0 | 3.0 | 0.00 | 0.08 | 0.06 | 96 | 1011.9 |
| 20260831185520 | 55 | 285 | 1.0 | 3.0 | 0.00 | 0.08 | 0.06 | 96 | 1011.9 |
| 20260831184559 | 55 | 243 | 2.0 | 4.0 | 0.00 | 0.08 | 0.06 | 96 | 1012.1 |
| 20260831183520 | 55 | 217 | 3.0 | 5.0 | 0.00 | 0.08 | 0.06 | 96 | 1012.1 |
| 20260831182540 | 55 | 221 | 2.0 | 5.0 | 0.00 | 0.08 | 0.06 | 96 | 1012.1 |
| 20260831181517 | 55 | 228 | 2.0 | 5.0 | 0.00 | 0.08 | 0.06 | 96 | 1012.1 |
| 20260831180523 | 55 | 235 | 2.0 | 3.0 | 0.00 | 0.08 | 0.06 | 96 | 1012.2 |
| 20260831175523 | 56 | 273 | 2.0 | 3.0 | 0.00 | 0.08 | 0.06 | 96 | 1012.2 |
| 20260831174523 | 55 | 242 | 1.0 | 3.0 | 0.00 | 0.08 | 0.06 | 96 | 1012.3 |
| 20260831173523 | 55 | 225 | 2.0 | 3.0 | 0.00 | 0.08 | 0.06 | 96 | 1012.3 |
| 20260831172523 | 55 | 247 | 2.0 | 3.0 | 0.00 | 0.08 | 0.06 | 96 | 1012.3 |
| 20260831171524 | 55 | 251 | 1.0 | 2.0 | 0.00 | 0.08 | 0.06 | 96 | 1012.4 |
| 20260831170525 | 55 | 267 | 1.0 | 3.0 | 0.00 | 0.08 | 0.06 | 96 | 1012.5 |
| 20260831165524 | 54 | 241 | 2.0 | 3.0 | 0.00 | 0.08 | 0.06 | 96 | 1012.6 |
| 20260831164526 | 54 | 210 | 2.0 | 2.0 | 0.00 | 0.08 | 0.06 | 96 | 1012.6 |
| 20260831163524 | 54 | 218 | 1.0 | 3.0 | 0.01 | 0.08 | 0.06 | 96 | 1012.8 |
| 20260831162526 | 54 | 211 | 1.0 | 2.0 | 0.01 | 0.08 | 0.06 | 96 | 1012.7 |
| 20260831161525 | 54 | 214 | 2.0 | 2.0 | 0.01 | 0.08 | 0.06 | 96 | 1012.8 |
| 20260831160546 | 54 | 212 | 2.0 | 2.0 | 0.01 | 0.08 | 0.06 | 95 | 1012.9 |
| 20260831155525 | 53 | 198 | 1.0 | 2.0 | 0.02 | 0.07 | 0.06 | 95 | 1012.9 |
| 20260831154546 | 53 | 0.0 | 0.0 | 0.02 | 0.07 | 0.06 | 95 | 1012.9 | |
| 20260831153526 | 53 | 252 | 0.0 | 1.0 | 0.02 | 0.07 | 0.06 | 95 | 1012.9 |
| 20260831152526 | 53 | 211 | 1.0 | 2.0 | 0.02 | 0.07 | 0.06 | 95 | 1012.9 |
| 20260831151525 | 53 | 195 | 0.0 | 0.0 | 0.02 | 0.06 | 0.05 | 95 | 1012.9 |
| 20260831150526 | 53 | 222 | 2.0 | 3.0 | 0.02 | 0.06 | 0.05 | 95 | 1013.0 |
| 20260831145526 | 53 | 218 | 1.0 | 2.0 | 0.02 | 0.06 | 0.04 | 95 | 1012.9 |
| 20260831144526 | 53 | 223 | 1.0 | 2.0 | 0.02 | 0.05 | 0.04 | 95 | 1012.9 |
| 20260831143548 | 53 | 234 | 1.0 | 2.0 | 0.03 | 0.05 | 0.04 | 95 | 1012.9 |
| 20260831142526 | 53 | 210 | 0.0 | 1.0 | 0.03 | 0.05 | 0.04 | 95 | 1012.8 |
| 20260831141527 | 53 | 218 | 1.0 | 2.0 | 0.03 | 0.05 | 0.03 | 95 | 1012.7 |
| 20260831140527 | 53 | 212 | 2.0 | 3.0 | 0.03 | 0.05 | 0.03 | 95 | 1012.6 |
| 20260831135609 | 53 | 237 | 2.0 | 4.0 | 0.02 | 0.04 | 0.02 | 95 | 1012.5 |
| 20260831134527 | 53 | 296 | 1.0 | 3.0 | 0.02 | 0.04 | 0.02 | 95 | 1012.5 |
| 20260831133529 | 53 | 313 | 2.0 | 4.0 | 0.01 | 0.03 | 0.01 | 95 | 1012.4 |
| 20260831132518 | 53 | 331 | 1.0 | 4.0 | 0.00 | 0.03 | 0.00 | 95 | 1012.3 |
| 20260831131521 | 53 | 321 | 1.0 | 2.0 | 0.00 | 0.02 | 0.00 | 95 | 1012.3 |
| 20260831130520 | 53 | 236 | 0.0 | 2.0 | 0.00 | 0.02 | 0.00 | 95 | 1012.4 |
| 20260831125539 | 53 | 262 | 0.0 | 3.0 | 0.00 | 0.02 | 0.00 | 95 | 1012.5 |
| 20260831124520 | 53 | 206 | 0.0 | 3.0 | 0.00 | 0.02 | 0.00 | 95 | 1012.5 |
| 20260831123519 | 53 | 0.0 | 0.0 | 0.00 | 0.02 | 0.00 | 95 | 1012.5 | |
| 20260831122519 | 53 | 216 | 0.0 | 3.0 | 0.00 | 0.02 | 0.00 | 95 | 1012.5 |
| 20260831121521 | 53 | 250 | 1.0 | 2.0 | 0.00 | 0.02 | 0.00 | 95 | 1012.5 |
| 20260831120518 | 53 | 209 | 1.0 | 2.0 | 0.00 | 0.02 | 0.00 | 95 | 1012.5 |
| 20260831115517 | 52 | 196 | 2.0 | 3.0 | 0.00 | 0.02 | 0.00 | 95 | 1012.6 |
| 20260831114518 | 52 | 235 | 1.0 | 3.0 | 0.00 | 0.02 | 0.00 | 95 | 1012.7 |
| 20260831113521 | 51 | 222 | 1.0 | 2.0 | 0.00 | 0.02 | 0.00 | 95 | 1012.7 |
| 20260831112518 | 51 | 310 | 0.0 | 2.0 | 0.00 | 0.02 | 0.00 | 95 | 1012.7 |
| 20260831111517 | 52 | 329 | 2.0 | 2.0 | 0.00 | 0.02 | 0.00 | 95 | 1012.8 |
| 20260831110518 | 52 | 344 | 0.0 | 2.0 | 0.00 | 0.02 | 0.00 | 95 | 1012.8 |
| 20260831105540 | 52 | 356 | 1.0 | 2.0 | 0.00 | 0.02 | 0.00 | 95 | 1012.8 |